[[{"header":{"parameterUnit":"m.s-1","parameterCategory":1,"la1":30.2991,"la2":30.254,"lo1":-89.0895,"lo2":-89.0444,"dy":0.0017,"dx":0.0017,"nx":28,"ny":28,"refTime":"2024-09-04T03:00:00:Z","depth":0,"parameterNumber":2,"parameterNumberName":"U-component_of_WINDS"},"data":[0,0,0,0,0,0,0,0,0,0,0,0,0,0,0,0,0,0,0,0,0,0,0,0,0,0,0,0,0,0,0,0,0,0,0,0,0,0,0,0,0,0,0,0,0,0,0,0,0,0,0,0,0,0,0,0,0,0,-5.3774,-5.3774,0,-5.3772,-5.3772,-5.3772,-5.3592,-5.3588,-5.3583,-5.3578,-5.3581,-5.3586,-5.359,0,0,0,0,0,0,0,0,0,0,0,0,0,-5.3629,-5.3632,-5.3774,-5.3774,-5.3774,-5.3772,-5.3772,-5.3772,-5.3593,-5.3587,-5.3582,-5.3576,-5.358,-5.3585,-5.3591,0,0,0,0,0,0,0,0,0,0,0,0,0,-5.3666,-5.3634,-5.3774,-5.3685,-5.3677,-5.3772,-5.3772,-5.3772,-5.3594,-5.3587,-5.358,-5.3574,-5.3578,-5.3585,-5.3591,-5.3774,0,0,-5.3612,-5.3615,0,0,0,0,0,0,0,0,-5.3664,-5.3672,-5.3698,-5.3691,-5.3682,-5.3675,-5.3721,-5.3773,-5.3596,-5.3626,-5.3578,-5.357,-5.3619,-5.3622,-5.3637,-5.3774,-5.3774,-5.3612,-5.3617,-5.3619,-5.3621,0,0,0,0,0,0,0,-5.3662,-5.3671,-5.3773,-5.3699,-5.3689,-5.3646,-5.3644,-5.373,-5.3662,-5.3623,-5.361,-5.3611,-5.3613,-5.3631,-5.3636,-5.3774,-5.3612,-5.3618,-5.3622,-5.3625,-5.4063,-5.4071,0,0,0,0,0,0,-5.3671,-5.367,-5.3774,-5.3773,-5.3655,-5.3654,-5.3652,-5.3685,-5.3661,-5.365,-5.3617,-5.3603,-5.3623,-5.3628,-5.3635,-5.3849,-5.3619,-5.3626,-5.3629,-5.4056,-5.4065,-5.4073,0,0,0,0,0,0,-5.3668,-5.3682,-5.3774,-5.3718,-5.3726,-5.3664,-5.3703,-5.3688,-5.3706,-5.3657,-5.3644,-5.3648,-5.3617,-5.3626,-5.3741,-5.3846,-5.3629,-5.3635,-5.4047,-5.4059,-5.4069,-5.4277,0,0,0,0,0,0,-5.3665,-5.3682,-5.375,-5.3721,-5.373,-5.3879,-5.3709,-5.3693,-5.3717,-5.3698,-5.3682,-5.3672,-5.3613,-5.3732,-5.3748,-5.3851,-5.364,-5.4037,-5.4052,-5.4065,-5.4261,-5.4294,-5.4323,0,0,0,0,0,-5.366,-5.3809,-5.3754,-5.3768,-5.3813,-5.3885,-5.389,-5.3817,-5.3726,-5.3795,-5.3763,-5.3673,-5.3832,-5.3745,-5.3761,-5.3869,-5.403,-5.4048,-5.4064,-5.4247,-5.4288,-5.4322,0,0,0,0,0,0,-5.3854,-5.3804,-5.3742,-5.3886,-5.3891,-5.3855,-5.3939,-5.3863,-5.3895,-5.3876,-5.3785,-5.3783,-5.3914,-5.3902,-5.3807,-5.4045,-5.3915,-5.3936,-5.4048,-5.4087,-5.4117,-5.4118,-5.3646,0,0,0,0,0,-5.3913,-5.3974,-5.3927,-5.4059,-5.4064,-5.4002,-5.403,-5.3973,-5.3975,-5.3977,-5.3954,-5.3961,-5.4012,-5.4049,-5.4093,-5.4257,-5.4252,-5.4339,-5.4371,-5.4397,-5.4417,-5.4505,-5.4543,-5.4129,-5.4129,-5.4129,0,0,-5.4037,-5.4017,-5.4061,-5.4097,-5.4094,-5.4161,-5.4005,-5.4082,-5.4131,-5.3989,-5.4097,-5.408,-5.4082,-5.4224,-5.4284,-5.4218,-5.453,-5.4418,-5.4439,-5.4445,-5.4526,-5.4566,-5.46,-5.4141,-5.4139,-5.4137,0,0,-5.4296,-5.4286,-5.4395,-5.4395,-5.4392,-5.4349,-5.4376,-5.4351,-5.4334,-5.444,-5.4335,-5.4393,-5.4483,-5.449,-5.4505,-5.4767,-5.4686,-5.4784,-5.4948,-5.5035,-5.5067,-5.5096,-5.5191,-5.5226,-5.4804,-5.4804,-5.4805,0,-5.445,-5.4545,-5.4461,-5.4545,-5.4565,-5.4438,-5.4548,-5.4553,-5.4566,-5.4584,-5.4509,-5.462,-5.4612,-5.4754,-5.4818,-5.4833,-5.4862,-5.4786,-5.5069,-5.5097,-5.5122,-5.5212,-5.5248,-5.4816,-5.4815,-5.4814,-5.4813,0,-5.4736,-5.4804,-5.4892,-5.4906,-5.4936,-5.5033,-5.4966,-5.5006,-5.4946,-5.4912,-5.5023,-5.5009,-5.5049,-5.5078,-5.5021,-5.5212,-5.5171,-5.5084,-5.4952,-5.5175,-5.5258,-5.5292,-5.4834,-5.4829,-5.4826,-5.4823,0,0,-5.5118,-5.5084,-5.5118,-5.5124,-5.5111,-5.5163,-5.5255,-5.5292,-5.533,-5.5343,-5.542,-5.5499,-5.5418,-5.5435,-5.5378,-5.5454,-5.5665,-5.5357,-5.5356,-5.5417,-5.5877,-5.5945,-5.5986,-5.561,-5.5616,-5.5621,-5.5878,0,-5.5371,-5.5524,-5.5452,-5.5615,-5.5677,-5.5557,-5.5638,-5.564,-5.5611,-5.5661,-5.5628,-5.5687,-5.5575,-5.5585,-5.5654,-5.5625,-5.5756,-5.5605,-5.5683,-5.5687,-5.5688,-5.6029,-5.61,-5.6343,-5.5909,-5.5915,-5.5919,0,-5.5686,-5.5711,-5.5881,-5.5857,-5.588,-5.5954,-5.5983,-5.6032,-5.6032,-5.6006,-5.6026,-5.5951,-5.6042,-5.5909,-5.6034,-5.5933,-5.596,-5.5951,-5.5958,-5.5964,-5.5818,-5.6046,-5.6418,-5.6456,-5.5969,-5.5965,-5.5961,0,-5.5951,-5.6027,-5.6138,-5.6146,-5.6121,-5.6176,-5.6168,-5.6162,-5.6189,-5.6215,-5.6232,-5.6269,-5.6291,-5.6322,-5.626,-5.6169,-5.6395,-5.6256,-5.6378,-5.638,-5.6432,-5.643,-5.6816,-5.6447,-5.6447,-5.6446,-5.6445,0,-5.6241,-5.635,-5.6256,-5.6326,-5.6444,-5.636,-5.6481,-5.646,-5.6455,-5.652,-5.6418,-5.6481,-5.6394,-5.6449,-5.6401,-5.6514,-5.6523,-5.6506,-5.6493,-5.6517,-5.6519,-5.6535,-5.6517,-5.6456,-5.6453,-5.6452,-5.645,0,-5.6558,-5.6499,-5.6613,-5.6579,-5.6574,-5.6663,-5.6635,-5.6699,-5.6661,-5.6744,-5.6759,-5.6702,-5.6762,-5.6702,-5.6759,-5.6726,-5.6878,-5.6839,-5.6878,-5.6867,-5.6992,-5.6983,-5.7404,-5.7455,-5.7052,-5.7056,-5.7059,0,-5.6748,-5.6829,-5.6804,-5.6839,-5.6837,-5.6895,-5.6922,-5.6842,-5.6875,-5.6882,-5.6946,-5.6996,-5.7032,-5.7133,-5.7099,-5.7142,-5.7104,-5.7248,-5.711,-5.7132,-5.7109,-5.7106,-5.7114,-5.7278,-5.7283,-5.7286,-5.729,0,-5.7094,-5.706,-5.7102,-5.7135,-5.717,-5.7192,-5.7207,-5.7242,-5.7159,-5.7202,-5.7261,-5.7289,-5.7345,-5.7398,-5.743,-5.7424,-5.7346,-5.7333,-5.7364,-5.739,-5.741,-5.7403,-5.6957,-5.7324,-5.7321,-5.7318,-5.7317,-5.7315,-5.7354,-5.7421,-5.7413,-5.7464,-5.7466,-5.7483,-5.7541,-5.751,-5.7557,-5.7596,-5.7546,-5.762,-5.7619,-5.7654,-5.7658,-5.7715,-5.7654,-5.7698,-5.771,-5.7723,-5.7742,-5.7399,-5.7721,-5.7719,-5.7718,-5.7718,-5.7717,0,-5.7695,-5.7685,-5.7732,-5.7755,-5.7796,-5.7714,-5.7726,-5.7766,-5.7831,-5.7837,-5.7874,-5.7943,-5.7993,-5.7962,-5.8005,-5.8058,-5.8023,-5.8072,-5.8069,-5.8069,-5.7793,-5.7763,-5.81,-5.81,-5.81,-5.81,-5.81,-5.8099,-5.7878,-5.7987,-5.7953,-5.8063,-5.8051,-5.8121,-5.8135,-5.815,-5.8154,-5.8234,-5.8275,-5.8253,-5.8245,-5.8287,-5.833,-5.832,-5.8342,-5.8405,-5.8383,-5.8126,-5.8088,-5.8052,-5.8024,-5.841,-5.841,-5.8654,-5.8656,-5.8658]},{"header":{"parameterUnit":"m.s-1","parameterCategory":1,"la1":30.2991,"la2":30.254,"lo1":-89.0895,"lo2":-89.0444,"dy":0.0017,"dx":0.0017,"nx":28,"ny":28,"refTime":"2024-09-04T03:00:00:Z","depth":0,"parameterNumber":3,"parameterNumberName":"V-component_of_WINDS"},"data":[0,0,0,0,0,0,0,0,0,0,0,0,0,0,0,0,0,0,0,0,0,0,0,0,0,0,0,0,0,0,0,0,0,0,0,0,0,0,0,0,0,0,0,0,0,0,0,0,0,0,0,0,0,0,0,0,0,0,-3.6418,-3.6416,0,-3.6283,-3.6281,-3.628,-3.6128,-3.6126,-3.6123,-3.6121,-3.5983,-3.5981,-3.5979,0,0,0,0,0,0,0,0,0,0,0,0,0,-3.6543,-3.6541,-3.6418,-3.6416,-3.6415,-3.6283,-3.6281,-3.6279,-3.6128,-3.6126,-3.6123,-3.612,-3.5983,-3.5981,-3.5979,0,0,0,0,0,0,0,0,0,0,0,0,0,-3.6456,-3.6541,-3.6418,-3.6323,-3.6314,-3.6283,-3.6281,-3.6279,-3.6129,-3.6125,-3.6122,-3.6119,-3.5984,-3.5981,-3.5979,-3.6031,0,0,-3.5972,-3.5971,0,0,0,0,0,0,0,0,-3.6461,-3.6452,-3.6339,-3.633,-3.6319,-3.6219,-3.6274,-3.6196,-3.613,-3.6199,-3.6121,-3.6117,-3.6064,-3.6055,-3.6037,-3.6025,-3.6019,-3.5971,-3.597,-3.5969,-3.5968,0,0,0,0,0,0,0,-3.6468,-3.6457,-3.6364,-3.6338,-3.6325,-3.6287,-3.6271,-3.6259,-3.6152,-3.6193,-3.6181,-3.6167,-3.6058,-3.6039,-3.6032,-3.6017,-3.5971,-3.5969,-3.5968,-3.5967,-3.6037,-3.604,0,0,0,0,0,0,-3.6488,-3.6463,-3.6369,-3.636,-3.6383,-3.6287,-3.6269,-3.6254,-3.6152,-3.6133,-3.617,-3.6161,-3.6045,-3.6035,-3.6027,-3.6078,-3.5969,-3.5967,-3.5965,-3.6033,-3.6037,-3.6041,0,0,0,0,0,0,-3.6491,-3.6481,-3.6374,-3.6408,-3.6392,-3.6289,-3.6273,-3.6253,-3.6235,-3.6135,-3.6115,-3.6172,-3.6042,-3.603,-3.603,-3.6072,-3.5966,-3.5963,-3.6029,-3.6035,-3.6039,-3.6185,0,0,0,0,0,0,-3.6496,-3.6483,-3.6503,-3.641,-3.6391,-3.6382,-3.6276,-3.6253,-3.6231,-3.6217,-3.613,-3.6113,-3.6039,-3.6035,-3.6028,-3.6066,-3.5961,-3.6025,-3.6032,-3.6038,-3.6176,-3.6194,-3.621,0,0,0,0,0,-3.6501,-3.655,-3.6505,-3.6494,-3.6413,-3.6384,-3.6373,-3.6287,-3.6235,-3.6253,-3.6188,-3.6116,-3.6069,-3.6036,-3.6027,-3.6066,-3.6022,-3.603,-3.6037,-3.6168,-3.6191,-3.6209,0,0,0,0,0,0,-3.6651,-3.6536,-3.6485,-3.6506,-3.6456,-3.6359,-3.6379,-3.6314,-3.6277,-3.6266,-3.616,-3.6141,-3.6154,-3.6109,-3.6075,-3.6109,-3.6035,-3.6041,-3.6137,-3.6158,-3.6174,-3.6185,-3.5959,0,0,0,0,0,-3.6687,-3.6673,-3.6573,-3.6601,-3.6579,-3.6484,-3.6468,-3.6405,-3.6349,-3.6328,-3.6263,-3.6211,-3.6183,-3.6168,-3.6138,-3.6168,-3.6146,-3.619,-3.6207,-3.6222,-3.6228,-3.6238,-3.6255,-3.6065,-3.6065,-3.6065,0,0,-3.676,-3.6696,-3.6694,-3.663,-3.6584,-3.6571,-3.6467,-3.6459,-3.6448,-3.6326,-3.6322,-3.6273,-3.6207,-3.6222,-3.6225,-3.6186,-3.6275,-3.6231,-3.6243,-3.6242,-3.6247,-3.6265,-3.6281,-3.607,-3.6069,-3.6069,0,0,-3.6887,-3.6838,-3.6855,-3.681,-3.6741,-3.6677,-3.6682,-3.6593,-3.6556,-3.655,-3.6457,-3.6442,-3.6399,-3.6355,-3.6327,-3.6435,-3.6365,-3.6428,-3.6517,-3.6527,-3.6542,-3.6555,-3.6591,-3.6606,-3.6435,-3.6435,-3.6435,0,-3.6987,-3.6965,-3.6872,-3.6868,-3.6842,-3.673,-3.6745,-3.6706,-3.6632,-3.6615,-3.6572,-3.6513,-3.6461,-3.6463,-3.6489,-3.6471,-3.647,-3.6437,-3.6548,-3.656,-3.657,-3.6603,-3.6618,-3.6443,-3.6442,-3.6441,-3.644,0,-3.709,-3.7076,-3.7098,-3.7027,-3.7003,-3.701,-3.6916,-3.6902,-3.6841,-3.6781,-3.6775,-3.6709,-3.6662,-3.6657,-3.6599,-3.665,-3.6627,-3.6568,-3.6491,-3.6598,-3.6627,-3.6639,-3.6454,-3.6451,-3.6449,-3.6447,0,0,-3.731,-3.7186,-3.7195,-3.7161,-3.7075,-3.7062,-3.7062,-3.7016,-3.7005,-3.6957,-3.6953,-3.6917,-3.686,-3.6829,-3.6763,-3.6773,-3.6859,-3.6711,-3.6708,-3.674,-3.6909,-3.6954,-3.6971,-3.6813,-3.6815,-3.6817,-3.6914,0,-3.7421,-3.7414,-3.7329,-3.7346,-3.733,-3.7222,-3.7222,-3.7169,-3.7112,-3.709,-3.7026,-3.7002,-3.693,-3.691,-3.6915,-3.6848,-3.6892,-3.684,-3.6807,-3.6807,-3.6826,-3.6986,-3.7034,-3.713,-3.6925,-3.6927,-3.6929,0,-3.755,-3.7508,-3.7524,-3.7435,-3.7425,-3.7427,-3.7375,-3.7356,-3.7292,-3.725,-3.7214,-3.7139,-3.7131,-3.7059,-3.7045,-3.7012,-3.6992,-3.6957,-3.6959,-3.6952,-3.6874,-3.6983,-3.7158,-3.7172,-3.6946,-3.6945,-3.6944,0,-3.7706,-3.7653,-3.7655,-3.7629,-3.7527,-3.753,-3.7487,-3.742,-3.7397,-3.7352,-3.7335,-3.7291,-3.7266,-3.7232,-3.7147,-3.7103,-3.7141,-3.7063,-3.7105,-3.7107,-3.7118,-3.7118,-3.7292,-3.7108,-3.7108,-3.7107,-3.7107,0,-3.7838,-3.7851,-3.7724,-3.7725,-3.7736,-3.7636,-3.7649,-3.7596,-3.7537,-3.7525,-3.7429,-3.7419,-3.7307,-3.7284,-3.7217,-3.7214,-3.7204,-3.7169,-3.715,-3.7177,-3.7181,-3.7162,-3.7153,-3.7111,-3.711,-3.7109,-3.7109,0,-3.8015,-3.793,-3.7924,-3.7827,-3.7803,-3.7815,-3.7731,-3.7727,-3.7664,-3.7649,-3.764,-3.754,-3.7508,-3.7419,-3.7364,-3.7318,-3.7334,-3.7301,-3.7356,-3.7344,-3.739,-3.7387,-3.7557,-3.7573,-3.7381,-3.7383,-3.7385,0,-3.8104,-3.8112,-3.8015,-3.8,-3.7961,-3.7938,-3.7913,-3.7815,-3.7793,-3.7719,-3.7724,-3.7684,-3.7646,-3.7599,-3.7521,-3.7478,-3.7442,-3.7505,-3.7435,-3.746,-3.7441,-3.7441,-3.744,-3.752,-3.7523,-3.7525,-3.7527,0,-3.8272,-3.8229,-3.8197,-3.815,-3.8123,-3.8082,-3.8034,-3.8027,-3.7917,-3.7896,-3.7862,-3.7833,-3.7775,-3.7736,-3.768,-3.7634,-3.7562,-3.7549,-3.7556,-3.7583,-3.7613,-3.7595,-3.7396,-3.7546,-3.7544,-3.7542,-3.7541,-3.754,-3.8406,-3.8406,-3.8338,-3.8305,-3.8259,-3.8217,-3.8207,-3.8142,-3.8112,-3.8058,-3.8001,-3.7972,-3.7905,-3.7822,-3.7781,-3.7756,-3.7718,-3.7729,-3.7731,-3.7735,-3.7747,-3.7618,-3.7745,-3.7745,-3.7744,-3.7744,-3.7743,0,-3.8567,-3.8517,-3.8488,-3.8424,-3.8398,-3.8332,-3.8275,-3.8257,-3.8233,-3.8177,-3.8142,-3.8101,-3.8061,-3.7979,-3.7932,-3.7927,-3.7893,-3.7918,-3.7917,-3.7907,-3.7784,-3.7782,-3.7947,-3.7947,-3.7947,-3.7947,-3.7947,-3.7947,-3.8647,-3.8644,-3.8593,-3.8565,-3.8514,-3.8485,-3.8458,-3.8418,-3.8372,-3.8331,-3.8298,-3.8244,-3.8177,-3.8123,-3.8084,-3.806,-3.8047,-3.8083,-3.8049,-3.7935,-3.7916,-3.7898,-3.7895,-3.8081,-3.8081,-3.8173,-3.8174,-3.8175]}]]